TimeEDT,TemperatureF,Dew PointF,Humidity,Sea Level PressureIn,VisibilityMPH,Wind Direction,Wind SpeedMPH,Gust SpeedMPH,PrecipitationIn,Events,Conditions,WindDirDegrees,DateUTC
12:15 AM,63.5,61.7,94,30.24,10.0,Calm,Calm,-,N/A,,Clear,0,2013-06-21 04:15:00
12:35 AM,63.1,61.0,93,30.24,10.0,North,3.5,-,N/A,,Clear,10,2013-06-21 04:35:00
12:55 AM,62.6,59.2,89,30.24,10.0,NNE,3.5,-,N/A,,Clear,20,2013-06-21 04:55:00
1:15 AM,62.4,58.3,86,30.24,10.0,Calm,Calm,-,N/A,,Clear,0,2013-06-21 05:15:00
1:35 AM,61.5,58.3,89,30.24,10.0,Calm,Calm,-,N/A,,Clear,0,2013-06-21 05:35:00
1:55 AM,60.3,57.7,91,30.23,10.0,Calm,Calm,-,N/A,,Clear,0,2013-06-21 05:55:00
2:15 AM,61.0,56.5,85,30.23,10.0,Calm,Calm,-,N/A,,Clear,0,2013-06-21 06:15:00
2:35 AM,59.9,57.0,90,30.23,10.0,Calm,Calm,-,N/A,,Clear,0,2013-06-21 06:35:00
2:55 AM,59.0,56.7,92,30.23,10.0,Calm,Calm,-,N/A,,Clear,0,2013-06-21 06:55:00
3:15 AM,58.5,56.3,93,30.23,10.0,NNE,3.5,-,N/A,,Clear,20,2013-06-21 07:15:00
3:35 AM,58.1,55.8,92,30.23,10.0,NNE,4.6,-,N/A,,Clear,20,2013-06-21 07:35:00
3:55 AM,58.5,55.6,90,30.23,10.0,North,3.5,-,N/A,,Clear,10,2013-06-21 07:55:00
4:15 AM,58.1,55.2,90,30.23,10.0,Calm,Calm,-,N/A,,Clear,0,2013-06-21 08:15:00
4:35 AM,57.2,55.4,94,30.23,10.0,Calm,Calm,-,N/A,,Clear,0,2013-06-21 08:35:00
4:55 AM,56.5,54.9,94,30.24,10.0,Calm,Calm,-,N/A,,Clear,0,2013-06-21 08:55:00
5:15 AM,56.1,54.5,94,30.24,10.0,Calm,Calm,-,N/A,,Clear,0,2013-06-21 09:15:00
5:35 AM,55.9,54.3,94,30.24,10.0,Calm,Calm,-,N/A,,Clear,0,2013-06-21 09:35:00
5:55 AM,55.4,54.1,96,30.24,10.0,Calm,Calm,-,N/A,,Clear,0,2013-06-21 09:55:00
6:15 AM,54.9,53.6,96,30.24,7.0,Calm,Calm,-,N/A,,Clear,0,2013-06-21 10:15:00
6:35 AM,55.4,54.0,95,30.24,10.0,Calm,Calm,-,N/A,,Clear,0,2013-06-21 10:35:00
6:55 AM,56.5,55.4,96,30.24,10.0,Calm,Calm,-,N/A,,Clear,0,2013-06-21 10:55:00
7:15 AM,59.0,57.4,94,30.25,10.0,Calm,Calm,-,N/A,,Clear,0,2013-06-21 11:15:00
7:35 AM,61.0,58.3,91,30.25,10.0,Calm,Calm,-,N/A,,Clear,0,2013-06-21 11:35:00
7:55 AM,63.5,59.4,86,30.26,10.0,North,3.5,-,N/A,,Clear,10,2013-06-21 11:55:00
8:15 AM,65.3,59.5,82,30.26,10.0,NNE,4.6,-,N/A,,Clear,20,2013-06-21 12:15:00
8:35 AM,66.7,57.4,72,30.26,10.0,North,8.1,-,N/A,,Clear,10,2013-06-21 12:35:00
8:55 AM,67.8,54.9,63,30.26,10.0,North,8.1,-,N/A,,Clear,10,2013-06-21 12:55:00
9:15 AM,69.3,54.7,60,30.26,10.0,North,4.6,-,N/A,,Clear,10,2013-06-21 13:15:00
9:35 AM,70.7,53.2,54,30.26,10.0,North,6.9,-,N/A,,Clear,360,2013-06-21 13:35:00
9:55 AM,71.2,52.7,52,30.26,10.0,NNE,4.6,-,N/A,,Clear,20,2013-06-21 13:55:00
10:15 AM,72.5,54.7,53,30.26,10.0,NNW,6.9,-,N/A,,Clear,340,2013-06-21 14:15:00
10:35 AM,73.8,54.9,52,30.26,10.0,North,8.1,-,N/A,,Clear,10,2013-06-21 14:35:00
10:55 AM,74.5,53.8,48,30.26,10.0,North,6.9,-,N/A,,Clear,360,2013-06-21 14:55:00
11:15 AM,75.4,54.1,48,30.26,10.0,NNE,6.9,-,N/A,,Clear,20,2013-06-21 15:15:00
11:35 AM,75.6,54.3,48,30.26,10.0,North,5.8,-,N/A,,Clear,350,2013-06-21 15:35:00
11:55 AM,77.0,54.1,45,30.26,10.0,North,4.6,-,N/A,,Clear,350,2013-06-21 15:55:00
12:15 PM,77.9,53.6,43,30.26,10.0,NNE,4.6,-,N/A,,Clear,30,2013-06-21 16:15:00
12:35 PM,78.8,51.3,38,30.25,10.0,NNE,6.9,-,N/A,,Clear,30,2013-06-21 16:35:00
12:55 PM,79.7,50.9,37,30.25,10.0,ENE,4.6,-,N/A,,Clear,60,2013-06-21 16:55:00
1:15 PM,79.9,49.8,35,30.25,10.0,ENE,6.9,-,N/A,,Clear,70,2013-06-21 17:15:00
1:35 PM,80.1,49.8,35,30.25,10.0,NNE,3.5,-,N/A,,Clear,30,2013-06-21 17:35:00
1:55 PM,81.0,49.8,34,30.24,10.0,Calm,Calm,-,N/A,,Clear,0,2013-06-21 17:55:00
2:15 PM,81.3,51.4,35,30.24,10.0,NE,5.8,-,N/A,,Clear,40,2013-06-21 18:15:00
2:35 PM,81.5,50.4,34,30.23,10.0,Calm,Calm,-,N/A,,Clear,0,2013-06-21 18:35:00
2:55 PM,82.2,52.3,35,30.23,10.0,North,10.4,-,N/A,,Clear,10,2013-06-21 18:55:00
3:15 PM,82.8,54.0,37,30.23,10.0,North,5.8,-,N/A,,Clear,360,2013-06-21 19:15:00
3:35 PM,82.6,53.6,37,30.22,10.0,North,5.8,-,N/A,,Clear,10,2013-06-21 19:35:00
3:55 PM,82.9,54.5,37,30.22,10.0,NNE,4.6,-,N/A,,Clear,20,2013-06-21 19:55:00
4:15 PM,83.3,55.8,39,30.22,10.0,NNW,6.9,-,N/A,,Clear,340,2013-06-21 20:15:00
4:35 PM,83.3,55.9,39,30.21,10.0,North,9.2,-,N/A,,Clear,10,2013-06-21 20:35:00
4:55 PM,83.3,56.7,40,30.20,10.0,Calm,Calm,-,N/A,,Clear,0,2013-06-21 20:55:00
5:15 PM,82.4,59.2,45,30.20,10.0,ENE,3.5,-,N/A,,Mostly Cloudy,70,2013-06-21 21:15:00
5:35 PM,81.7,60.4,48,30.20,10.0,East,4.6,-,N/A,,Scattered Clouds,80,2013-06-21 21:35:00
5:55 PM,82.2,60.4,48,30.19,10.0,ENE,3.5,-,N/A,,Scattered Clouds,70,2013-06-21 21:55:00
6:15 PM,82.4,60.6,48,30.19,10.0,ENE,5.8,-,N/A,,Clear,70,2013-06-21 22:15:00
6:35 PM,81.3,60.4,49,30.19,10.0,ENE,3.5,-,N/A,,Clear,70,2013-06-21 22:35:00
6:55 PM,81.5,61.0,50,30.19,10.0,ENE,3.5,-,N/A,,Clear,70,2013-06-21 22:55:00
7:15 PM,81.1,61.9,52,30.19,10.0,East,4.6,-,N/A,,Clear,80,2013-06-21 23:15:00
7:35 PM,80.1,62.4,55,30.19,10.0,NNE,3.5,-,N/A,,Clear,30,2013-06-21 23:35:00
7:55 PM,78.4,63.7,60,30.18,10.0,North,4.6,-,N/A,,Clear,10,2013-06-21 23:55:00
8:15 PM,75.7,64.9,69,30.19,10.0,NE,3.5,-,N/A,,Clear,40,2013-06-22 00:15:00
8:35 PM,73.2,65.1,76,30.19,10.0,Calm,Calm,-,N/A,,Clear,0,2013-06-22 00:35:00
8:55 PM,72.0,64.4,77,30.19,10.0,Calm,Calm,-,N/A,,Clear,0,2013-06-22 00:55:00
9:15 PM,70.5,64.9,82,30.19,10.0,Calm,Calm,-,N/A,,Clear,0,2013-06-22 01:15:00
9:35 PM,69.3,65.1,87,30.20,10.0,Calm,Calm,-,N/A,,Clear,0,2013-06-22 01:35:00
9:55 PM,68.9,64.8,87,30.21,10.0,Calm,Calm,-,N/A,,Clear,0,2013-06-22 01:55:00
10:15 PM,68.0,64.4,88,30.21,10.0,Calm,Calm,-,N/A,,Clear,0,2013-06-22 02:15:00
10:35 PM,67.6,64.4,89,30.21,10.0,Calm,Calm,-,N/A,,Clear,0,2013-06-22 02:35:00
10:55 PM,66.9,64.4,92,30.21,10.0,Calm,Calm,-,N/A,,Clear,0,2013-06-22 02:55:00
11:15 PM,67.1,64.2,90,30.21,10.0,Calm,Calm,-,N/A,,Clear,0,2013-06-22 03:15:00
11:35 PM,66.6,64.2,92,30.20,10.0,Calm,Calm,-,N/A,,Clear,0,2013-06-22 03:35:00
11:55 PM,66.7,63.5,89,30.20,10.0,Calm,Calm,-,N/A,,Clear,0,2013-06-22 03:55:00